San Diego, CA

1:18 PM PST on February 12, 2016 (GMT -0800)
Miramar Marine Corps Air Station-Mitscher

Weather History for KNKX - January, 2013

Change the Weather History Date:

Friday, January 11, 2013

  Actual Average Record
Temperature  
Mean Temperature 44 °F -  
Max Temperature 54 °F 64 °F 81 °F (2002)
Min Temperature 34 °F 44 °F 34 °F (2013)
Degree Days  
Heating Degree Days 21    
Moisture  
Dew Point 28 °F    
Average Humidity 55    
Maximum Humidity 77    
Minimum Humidity 30    
Precipitation  
Precipitation 0.00 in - - ()
Sea Level Pressure  
Sea Level Pressure 30.11 in    
Wind  
Wind Speed 6 mph (NNE)    
Max Wind Speed 10 mph    
Max Gust Speed 17 mph    
Visibility 10 miles    
Events      
Averages and records for this station are not official NWS values.
T = Trace of Precipitation, MM = Missing Value Source: NWS Daily Summary

Daily Weather History Graph

Daily Weather History Graph

Search for Another Location

Airport or City:

Trip Planner

Search our weather history database for the weather conditions in past years. The results will help you decide how hot, cold, wet, or windy it might be!

Date:

Astronomy

Jan. 11, 2013 Rise Set
Actual Time 6:51 AM PST 5:01 PM PST
Civil Twilight 6:24 AM PST 5:28 PM PST
Nautical Twilight 5:54 AM PST 5:59 PM PST
Astronomical Twilight 5:24 AM PST 6:28 PM PST
Moon 6:31 AM PST (1/11) 5:21 PM PST (1/11)
Length of Visible Light 11h 03m
Length of Day
10h 09m
New Moon, 0% of the Moon is Illuminated
Jan 11
New Moon
Jan 18
First Quarter
Jan 26
Full
Feb 3
Last Quarter
Feb 9
New

Hourly Weather History & Observations

Time (PST) Temp. Windchill Dew Point Humidity Pressure Visibility Wind Dir Wind Speed Gust Speed Precip Events Conditions
12:55 AM 46.9 °F - 32.0 °F 56% 30.10 in 10.0 mi North 6.9 mph - N/A   Partly Cloudy
1:55 AM 45.0 °F 41.8 °F 28.0 °F 52% 30.11 in 10.0 mi NW 5.8 mph - N/A   Clear
2:55 AM 44.1 °F 41.5 °F 26.1 °F 49% 30.12 in 10.0 mi North 4.6 mph - N/A   Partly Cloudy
3:55 AM 37.0 °F 33.3 °F 27.0 °F 67% 30.12 in 10.0 mi NE 4.6 mph - N/A   Partly Cloudy
4:55 AM 37.0 °F 33.3 °F 26.1 °F 65% 30.14 in 10.0 mi NE 4.6 mph - N/A   Clear
5:55 AM 34.0 °F - 25.0 °F 70% 30.15 in 10.0 mi Calm Calm - N/A   Clear
6:55 AM 34.0 °F - 26.1 °F 73% 30.17 in 10.0 mi Calm Calm - N/A   Partly Cloudy
7:55 AM 42.1 °F 40.2 °F 28.9 °F 60% 30.18 in 10.0 mi East 3.5 mph - N/A   Scattered Clouds
8:55 AM 48.9 °F - 23.0 °F 36% 30.19 in 10.0 mi North 6.9 mph - N/A   Partly Cloudy
9:55 AM 51.1 °F - 21.0 °F 31% 30.18 in 10.0 mi Variable 6.9 mph - N/A   Scattered Clouds
10:55 AM 53.1 °F - 21.9 °F 30% 30.16 in 10.0 mi NW 10.4 mph 16.1 mph N/A   Partly Cloudy
11:55 AM 54.0 °F - 25.0 °F 33% 30.12 in 10.0 mi NW 8.1 mph - N/A   Partly Cloudy
12:00 PM - - - N/A% - - North - - N/A   Unknown
12:55 PM 52.0 °F - 26.1 °F 37% 30.11 in 10.0 mi WNW 9.2 mph - N/A   Scattered Clouds
1:55 PM 53.1 °F - 28.0 °F 38% 30.09 in 10.0 mi West 8.1 mph 16.1 mph N/A   Scattered Clouds
2:55 PM 52.0 °F - 28.0 °F 40% 30.08 in 10.0 mi WSW 9.2 mph 17.3 mph N/A   Scattered Clouds
3:55 PM 52.0 °F - 28.9 °F 41% 30.08 in 10.0 mi WSW 9.2 mph - N/A   Scattered Clouds
4:55 PM 46.9 °F - 30.9 °F 54% 30.07 in 10.0 mi WSW 4.6 mph - N/A   Scattered Clouds
5:55 PM 41.0 °F - 30.0 °F 65% 30.08 in 10.0 mi Calm Calm - N/A   Scattered Clouds
6:55 PM 39.9 °F 36.7 °F 30.9 °F 70% 30.08 in 10.0 mi East 4.6 mph - N/A   Partly Cloudy
7:55 PM 39.9 °F 37.8 °F 30.9 °F 70% 30.09 in 10.0 mi East 3.5 mph - N/A   Partly Cloudy
8:55 PM 42.1 °F 39.2 °F 33.1 °F 70% 30.08 in 10.0 mi East 4.6 mph - N/A   Scattered Clouds
9:55 PM 44.1 °F 40.8 °F 33.1 °F 65% 30.08 in 10.0 mi East 5.8 mph - N/A   Mostly Cloudy
10:55 PM 43.0 °F 39.5 °F 35.1 °F 74% 30.08 in 10.0 mi ENE 5.8 mph - 0.00 in   Mostly Cloudy
11:55 PM 39.9 °F 34.5 °F 33.1 °F 77% 30.07 in 10.0 mi East 8.1 mph - N/A   Partly Cloudy